Cape Girardeau, MO

7:00 PM CDT on August 22, 2017 (GMT -0500)
Cape Girardeau Regional

Weather History for KCGI - March, 2011

Change the Weather History Date:

Tuesday, March 29, 2011

  Actual Average Record
Temperature  
Mean Temperature 45 °F 51 °F  
Max Temperature 50 °F 63 °F 82 °F (1963)
Min Temperature 40 °F 40 °F 24 °F (1964)
Degree Days  
Heating Degree Days 20 14  
Month to date heating degree days 463 532  
Since 1 July heating degree days 3969 4029  
Cooling Degree Days 0 0  
Month to date cooling degree days 3 0  
Year to date cooling degree days 3 0  
Moisture  
Dew Point 29 °F    
Average Humidity 59    
Maximum Humidity 76    
Minimum Humidity 42    
Precipitation  
Precipitation 0.10 in 0.16 in 1.47 in (1988)
Month to date precipitation 4.54 4.08  
Year to date precipitation 10.24 10.96  
Sea Level Pressure  
Sea Level Pressure 30.10 in    
Wind  
Wind Speed 9 mph (ENE)    
Max Wind Speed 18 mph    
Max Gust Speed 22 mph    
Visibility 10 miles    
Events Rain    
T = Trace of Precipitation, MM = Missing Value Source: NWS Daily Summary

Daily Weather History Graph

Daily Weather History Graph

Search for Another Location

Airport or City:

Trip Planner

Search our weather history database for the weather conditions in past years. The results will help you decide how hot, cold, wet, or windy it might be!

Date:

Astronomy

Mar. 29, 2011 Rise Set
Actual Time 6:48 AM CDT 7:17 PM CDT
Civil Twilight 6:22 AM CDT 7:44 PM CDT
Nautical Twilight 5:51 AM CDT 8:14 PM CDT
Astronomical Twilight 5:20 AM CDT 8:46 PM CDT
Moon 4:07 AM CDT (3/29) 3:04 PM CDT (3/29)
Length of Visible Light 13h 21m
Length of Day
12h 29m
Waning Crescent, 20% of the Moon is Illuminated
Mar 29
Waning Crescent
Apr 3
New
Apr 11
First Quarter
Apr 17
Full
Apr 24
Last Quarter

Hourly Weather History & Observations

Time (CDT) Temp. Windchill Dew Point Humidity Pressure Visibility Wind Dir Wind Speed Gust Speed Precip Events Conditions
12:53 AM 45.0 °F 40.6 °F 24.1 °F 44% 30.07 in 10.0 mi ENE 8.1 mph - N/A   Partly Cloudy
1:53 AM 44.1 °F 40.8 °F 27.0 °F 51% 30.07 in 10.0 mi ENE 5.8 mph - N/A   Scattered Clouds
2:53 AM 41.0 °F 38.0 °F 28.0 °F 60% 30.09 in 10.0 mi NE 4.6 mph - N/A   Partly Cloudy
3:53 AM 41.0 °F 37.1 °F 28.4 °F 61% 30.09 in 10.0 mi NE 5.8 mph - N/A   Mostly Cloudy
4:53 AM 44.1 °F 40.1 °F 27.0 °F 51% 30.10 in 10.0 mi NE 6.9 mph - N/A   Overcast
5:53 AM 44.1 °F 37.7 °F 26.1 °F 49% 30.11 in 10.0 mi ENE 12.7 mph - N/A   Overcast
6:53 AM 44.6 °F 40.2 °F 24.8 °F 46% 30.13 in 10.0 mi ENE 8.1 mph - N/A   Overcast
7:53 AM 45.0 °F 39.7 °F 26.1 °F 48% 30.14 in 10.0 mi ENE 10.4 mph - N/A   Overcast
8:53 AM 46.0 °F 41.4 °F 25.0 °F 44% 30.14 in 10.0 mi East 9.2 mph - N/A   Overcast
9:53 AM 46.9 °F - 26.1 °F 44% 30.17 in 10.0 mi ENE 8.1 mph - N/A   Overcast
10:53 AM 48.0 °F - 27.0 °F 44% 30.12 in 10.0 mi East 12.7 mph - N/A   Mostly Cloudy
11:53 AM 48.9 °F - 27.0 °F 43% 30.12 in 10.0 mi East 11.5 mph - N/A   Overcast
12:53 PM 48.9 °F - 27.0 °F 43% 30.13 in 10.0 mi NE 6.9 mph - N/A   Overcast
1:53 PM 48.9 °F - 27.0 °F 43% 30.13 in 10.0 mi NE 5.8 mph - N/A   Overcast
2:53 PM 48.9 °F - 27.0 °F 43% 30.09 in 10.0 mi NNE 12.7 mph - 0.00 in   Overcast
3:53 PM 48.0 °F - 28.0 °F 46% 30.09 in 10.0 mi NE 10.4 mph - N/A   Overcast
4:53 PM 46.9 °F - 32.0 °F 56% 30.07 in 10.0 mi NE 13.8 mph - 0.00 in Rain Light Rain
5:53 PM 45.0 °F 42.6 °F 37.0 °F 74% 30.09 in 10.0 mi East 4.6 mph - 0.04 in Rain Light Rain
6:53 PM 43.0 °F 38.2 °F 34.0 °F 71% 30.09 in 6.0 mi NE 8.1 mph - 0.05 in Rain Light Rain
7:53 PM 43.0 °F 38.8 °F 35.1 °F 74% 30.07 in 10.0 mi ENE 6.9 mph - 0.00 in   Overcast
8:53 PM 43.0 °F 37.7 °F 35.1 °F 74% 30.08 in 10.0 mi NE 9.2 mph - 0.01 in Rain Light Rain
9:53 PM 43.0 °F 38.8 °F 35.1 °F 74% 30.07 in 10.0 mi NE 6.9 mph - 0.00 in   Overcast
10:53 PM 43.0 °F 39.5 °F 36.0 °F 76% 30.06 in 10.0 mi NE 5.8 mph - N/A   Overcast
11:53 PM 43.0 °F 38.8 °F 34.0 °F 71% 30.06 in 10.0 mi NNE 6.9 mph - N/A   Overcast